Weather History for Hickory, NC

Change the Weather History Date:

Friday, April 5, 2013

  Actual Average Record
Temperature  
Mean Temperature 50 °F -  
Max Temperature 64 °F 65 °F 86 °F (1988)
Min Temperature 37 °F 44 °F 27 °F (1972)
Degree Days  
Heating Degree Days 14    
Moisture  
Dew Point 37 °F    
Average Humidity 73    
Maximum Humidity 100    
Minimum Humidity 29    
Precipitation  
Precipitation 0.01 in - - ()
Sea Level Pressure  
Sea Level Pressure 29.94 in    
Wind  
Wind Speed 4 mph (NW)    
Max Wind Speed 10 mph    
Max Gust Speed -    
Visibility 8 miles    
Events      
Averages and records for this station are not official NWS values.
T = Trace of Precipitation, MM = Missing Value Source: NWS Daily Summary

Daily Weather History Graph

Daily Weather History Graph

Search for Another Location

Airport:

Trip Planner

Search our weather history database for the weather conditions in past years. The results will help you decide how hot, cold, wet, or windy it might be!

Date:

Astronomy

Apr. 05, 2013 Rise Set
Actual Time 7:06 AM EDT 7:50 PM EDT
Civil Twilight 6:40 AM EDT 8:16 PM EDT
Nautical Twilight 6:09 AM EDT 8:47 PM EDT
Astronomical Twilight 5:38 AM EDT 9:18 PM EDT
Moon 4:03 AM EDT (4/5) 3:21 PM EDT (4/5)
Length of Visible Light 13h 36m
Length of Day
12h 44m
Waning Crescent, 24% of the Moon is Illuminated
Apr 5
Waning Crescent
Apr 10
New
Apr 18
First Quarter
Apr 25
Full
May 2
Last Quarter

Hourly Weather History & Observations

Time (EDT) Temp. Windchill Dew Point Humidity Pressure Visibility Wind Dir Wind Speed Gust Speed Precip Events Conditions
12:36 AM 37.4 °F - 35.6 °F 93% 29.97 in 2.5 mi Calm Calm - 0.01 in   Overcast
12:46 AM 37.4 °F - 35.6 °F 93% 29.97 in 3.0 mi Calm Calm - 0.01 in   Overcast
12:53 AM 37.0 °F 34.5 °F 36.0 °F 96% 29.96 in 4.0 mi NNW 3.5 mph - 0.01 in   Overcast
1:53 AM 37.9 °F 35.5 °F 36.0 °F 93% 29.94 in 3.0 mi WNW 3.5 mph - N/A   Overcast
2:53 AM 37.9 °F 32.7 °F 36.0 °F 93% 29.92 in 6.0 mi NW 6.9 mph - N/A   Overcast
3:14 AM 37.4 °F 34.9 °F 37.4 °F 100% 29.93 in 6.0 mi NNW 3.5 mph - N/A   Overcast
3:36 AM 37.4 °F 33.8 °F 35.6 °F 93% 29.92 in 6.0 mi NW 4.6 mph - N/A   Overcast
3:53 AM 37.9 °F 32.7 °F 36.0 °F 93% 29.93 in 7.0 mi WNW 6.9 mph - N/A   Overcast
4:08 AM 37.4 °F 32.8 °F 35.6 °F 93% 29.94 in 7.0 mi WNW 5.8 mph - N/A   Overcast
4:53 AM 37.9 °F 35.5 °F 37.0 °F 97% 29.91 in 7.0 mi Variable 3.5 mph - N/A   Overcast
5:05 AM 39.2 °F 35.9 °F 37.4 °F 93% 29.92 in 4.0 mi North 4.6 mph - N/A   Overcast
5:17 AM 37.4 °F 34.9 °F 37.4 °F 100% 29.92 in 5.0 mi North 3.5 mph - N/A   Overcast
5:53 AM 37.9 °F - 37.0 °F 97% 29.89 in 6.0 mi Calm Calm - N/A   Overcast
6:22 AM 39.2 °F 37.0 °F 37.4 °F 93% 29.91 in 7.0 mi North 3.5 mph - N/A   Overcast
6:53 AM 39.9 °F - 37.9 °F 93% 29.91 in 10.0 mi Calm Calm - N/A   Overcast
7:53 AM 41.0 °F - 39.0 °F 93% 29.95 in 7.0 mi Calm Calm - N/A   Overcast
8:53 AM 42.1 °F 39.2 °F 39.0 °F 89% 29.97 in 10.0 mi West 4.6 mph - N/A   Overcast
9:53 AM 46.9 °F - 41.0 °F 80% 29.96 in 10.0 mi WNW 5.8 mph - N/A   Overcast
10:53 AM 48.0 °F - 39.9 °F 74% 29.96 in 10.0 mi NNW 6.9 mph - N/A   Overcast
11:53 AM 54.0 °F - 41.0 °F 62% 29.96 in 10.0 mi Variable 5.8 mph - N/A   Scattered Clouds
12:53 PM 59.0 °F - 41.0 °F 51% 29.93 in 10.0 mi Variable 3.5 mph - N/A   Partly Cloudy
1:53 PM 60.1 °F - 42.1 °F 51% 29.91 in 10.0 mi Calm Calm - N/A   Mostly Cloudy
2:53 PM 63.0 °F - 41.0 °F 45% 29.89 in 10.0 mi Variable 5.8 mph - N/A   Partly Cloudy
3:53 PM 64.0 °F - 30.9 °F 29% 29.88 in 10.0 mi West 8.1 mph - N/A   Clear
4:53 PM 64.0 °F - 30.9 °F 29% 29.88 in 10.0 mi NW 10.4 mph - N/A   Clear
5:53 PM 64.0 °F - 32.0 °F 30% 29.90 in 10.0 mi NNW 10.4 mph - N/A   Clear
6:53 PM 61.0 °F - 33.1 °F 35% 29.93 in 10.0 mi NW 8.1 mph - N/A   Clear
7:53 PM 57.0 °F - 34.0 °F 42% 29.95 in 10.0 mi NW 8.1 mph - N/A   Clear
8:53 PM 55.0 °F - 34.0 °F 45% 29.99 in 10.0 mi NW 4.6 mph - N/A   Clear
9:53 PM 54.0 °F - 34.0 °F 47% 30.01 in 10.0 mi NNW 4.6 mph - N/A   Clear
10:53 PM 52.0 °F - 35.1 °F 53% 30.02 in 10.0 mi NNE 3.5 mph - N/A   Clear
11:53 PM 51.1 °F - 35.1 °F 54% 30.02 in 10.0 mi NW 3.5 mph - N/A   Clear